M0TJX-1 Weather Reports


time (UTC)temp
C
wind
direction
speed
KPH
gust
KPH
rain 1hr
cm
rain 24hr
cm
rain mn
cm
humidity
%
barometer
mb
20260507152811 12 304 0.0 3.2 0.03 0.03 0.03 84 1015.0
20260507151311 12 111 0.0 0.0 0.00 0.00 0.00 80 1015.1
20260507145811 13 111 0.0 0.0 0.00 0.00 0.00 76 1015.0
20260507144311 13 111 1.6 4.8 0.00 0.00 0.00 71 1015.1
20260507142811 13 97 4.8 9.7 0.00 0.00 0.00 67 1015.2
20260507141311 13 121 1.6 9.7 0.00 0.00 0.00 64 1015.3
20260507135811 14 250 1.6 8.0 0.00 0.00 0.00 62 1015.2
20260507134311 14 113 1.6 6.4 0.00 0.00 0.00 63 1015.2
20260507132811 14 136 3.2 11.3 0.00 0.00 0.00 61 1015.1
20260507131311 14 101 4.8 11.3 0.00 0.00 0.00 60 1015.1
20260507125811 15 121 4.8 12.9 0.00 0.00 0.00 58 1015.2
20260507124311 15 137 3.2 6.4 0.00 0.00 0.00 58 1015.2
20260507122811 15 106 4.8 9.7 0.00 0.00 0.00 61 1015.3
20260507121311 14 209 4.8 11.3 0.00 0.00 0.00 61 1015.3
20260507115811 14 123 4.8 9.7 0.00 0.00 0.00 61 1015.4
20260507114312 14 149 3.2 11.3 0.00 0.00 0.00 61 1015.6
20260507112812 15 132 4.8 12.9 0.00 0.00 0.00 60 1015.5
20260507111312 16 191 3.2 11.3 0.00 0.00 0.00 60 1015.5
20260507105812 16 105 3.2 8.0 0.00 0.00 0.00 61 1015.5
20260507104312 15 126 3.2 9.7 0.00 0.00 0.00 60 1015.8
20260507102812 14 122 3.2 12.9 0.00 0.00 0.00 66 1015.8
20260507101312 13 140 3.2 4.8 0.00 0.00 0.00 73 1015.7
20260507095812 12 159 1.6 6.4 0.00 0.00 0.00 76 1015.7
20260507094312 12 159 1.6 6.4 0.00 0.00 0.00 77 1016.0
20260507092812 11 138 3.2 8.0 0.00 0.00 0.00 79 1016.0
20260507091312 10 48 3.2 6.4 0.00 0.00 0.00 81 1015.8
20260507085812 10 129 1.6 4.8 0.00 0.00 0.00 84 1016.1
20260507084312 8 148 3.2 6.4 0.00 0.00 0.00 86 1016.1
20260507082812 8 159 1.6 8.0 0.00 0.00 0.00 87 1016.0
20260507081312 7 128 1.6 4.8 0.00 0.00 0.00 88 1015.9
20260507075812 7 109 1.6 6.4 0.00 0.00 0.00 88 1015.9
20260507074312 7 91 1.6 4.8 0.00 0.00 0.00 89 1015.9
20260507072812 7 167 1.6 4.8 0.00 0.00 0.00 89 1015.9
20260507071312 7 110 1.6 6.4 0.00 0.00 0.00 89 1015.8
20260507065812 6 50 0.0 3.2 0.00 0.00 0.00 90 1015.7
20260507064312 6 86 0.0 4.8 0.00 0.00 0.00 90 1015.5
20260507062812 6 148 1.6 3.2 0.00 0.00 0.00 90 1015.4
20260507061312 6 340 1.6 3.2 0.00 0.00 0.00 91 1015.5
20260507055812 6 11 1.6 4.8 0.00 0.00 0.00 91 1015.3
20260507054312 6 109 1.6 6.4 0.00 0.00 0.00 91 1015.3
20260507052812 6 160 1.6 9.7 0.00 0.00 0.00 91 1015.3
20260507051312 6 116 1.6 6.4 0.00 0.00 0.00 90 1015.3
20260507045812 6 129 1.6 4.8 0.00 0.00 0.00 90 1015.3
20260507044312 6 24 0.0 3.2 0.00 0.00 0.00 90 1015.2
20260507042812 6 109 1.6 8.0 0.00 0.00 0.00 90 1015.1
20260507041312 6 65 0.0 1.6 0.00 0.00 0.00 90 1015.0
20260507035812 6 355 1.6 8.0 0.00 0.00 0.00 90 1015.1
20260507034312 6 355 1.6 4.8 0.00 0.00 0.00 90 1015.1
20260507032812 6 15 1.6 6.4 0.00 0.00 0.00 90 1015.2
20260507031312 6 159 1.6 6.4 0.00 0.00 0.00 90 1015.3
20260507025812 6 26 3.2 9.7 0.00 0.00 0.00 90 1015.2
20260507024312 6 15 3.2 6.4 0.00 0.00 0.00 89 1015.2
20260507022812 6 130 3.2 9.7 0.00 0.00 0.00 89 1015.0
20260507021312 6 132 3.2 9.7 0.00 0.00 0.00 88 1015.0
20260507015812 6 22 3.2 6.4 0.00 0.00 0.00 88 1015.0
20260507014312 6 139 1.6 4.8 0.00 0.00 0.00 87 1015.0
20260507012812 7 165 3.2 6.4 0.00 0.00 0.00 87 1015.1
20260507011312 7 89 3.2 11.3 0.00 0.00 0.00 86 1015.1
20260507005812 7 75 3.2 6.4 0.00 0.00 0.00 86 1015.0
20260507004312 7 151 1.6 6.4 0.00 0.00 0.00 85 1015.1
20260507002812 7 136 3.2 6.4 0.00 0.00 0.00 85 1015.2
20260507001312 7 49 1.6 8.0 0.00 0.00 0.00 84 1015.3
20260506235812 7 136 1.6 6.4 0.00 0.00 0.00 83 1015.4
20260506234312 7 355 3.2 16.1 0.00 0.00 0.00 82 1015.3
20260506232812 7 128 1.6 8.0 0.00 0.00 0.00 81 1015.3
20260506231312 8 323 3.2 6.4 0.00 0.00 0.00 80 1015.2
20260506225812 8 37 1.6 8.0 0.00 0.00 0.00 79 1015.3
20260506224312 8 175 3.2 8.0 0.00 0.00 0.00 77 1015.1
20260506222813 8 51 3.2 9.7 0.00 0.00 0.00 76 1015.1
20260506221313 9 152 1.6 6.4 0.00 0.00 0.00 74 1015.0
20260506215813 9 28 1.6 4.8 0.00 0.00 0.00 73 1015.0
20260506214313 9 28 1.6 8.0 0.00 0.00 0.00 72 1014.9
20260506212813 9 5 0.0 3.2 0.00 0.00 0.00 71 1014.9
20260506211313 9 57 0.0 1.6 0.00 0.00 0.00 70 1014.9
20260506205813 9 33 0.0 3.2 0.00 0.00 0.00 69 1014.6
20260506204313 9 25 1.6 4.8 0.00 0.00 0.00 68 1014.7
20260506202813 10 85 0.0 3.2 0.00 0.00 0.00 66 1014.5
20260506201313 10 85 0.0 3.2 0.00 0.00 0.00 63 1014.5
20260506195813 11 107 1.6 6.4 0.00 0.00 0.00 62 1014.2
20260506194313 11 74 1.6 4.8 0.00 0.00 0.00 61 1014.1
20260506192813 12 25 3.2 4.8 0.00 0.00 0.00 59 1014.1
20260506191313 12 27 1.6 4.8 0.00 0.00 0.00 57 1014.0
20260506185813 12 32 3.2 8.0 0.00 0.00 0.00 56 1013.7
20260506184313 12 30 3.2 6.4 0.00 0.00 0.00 56 1013.8
20260506182813 13 337 3.2 8.0 0.00 0.00 0.00 54 1013.9
20260506181313 13 5 4.8 9.7 0.00 0.00 0.00 53 1013.8
20260506175813 13 263 3.2 12.9 0.00 0.00 0.00 52 1013.6
20260506174313 14 5 4.8 9.7 0.00 0.00 0.00 52 1013.5
20260506172813 14 20 1.6 8.0 0.00 0.00 0.00 50 1013.5
20260506171313 15 29 3.2 14.5 0.00 0.00 0.00 49 1013.5
20260506165813 15 42 3.2 12.9 0.00 0.00 0.00 48 1013.5
20260506164313 16 13 3.2 11.3 0.00 0.00 0.00 47 1013.3
20260506162813 16 36 3.2 6.4 0.00 0.00 0.00 46 1013.4
20260506161313 16 22 4.8 12.9 0.00 0.00 0.00 48 1013.5
20260506155813 16 24 4.8 11.3 0.00 0.00 0.00 46 1013.5
20260506154313 16 10 3.2 17.7 0.00 0.00 0.00 47 1013.5